User: anonymous
Location: Mount Tamalpais State Park
(37.9108°N, 122.6128°W)
Time: 03:43:44
(UTC-07:00)
Language:

Cosmos 1814 Rocket - Orbit

View from above orbital plane
View from above orbital plane
View from above satellite
View from above satellite

Ground track
Ground track

The orbit data is extracted from the following two-line orbital elements,

1 17304U 87006B   14231.15961521  .00000043  00000-0  23223-4 0  1992
2 17304 074.0602 189.1133 0031132 286.3807 195.2731 14.37334033444861
Epoch (UTC): 19 August 2014 03:49:50
Eccentricity: 0.0031132
inclination: 74.0602°
perigee height: 745 km
apogee height: 789 km
right ascension of ascending node: 189.1133°
argument of perigee: 286.3807°
revolutions per day: 14.37334033
mean anomaly at epoch: 195.2731°
orbit number at epoch: 44486

The dashed part of the orbit path shows where the satellite is in the earth's shadow,  

DLR